Weather History for Kars, Turkey

Change the Weather History Date:

Saturday, February 2, 2013

  Actual Average Record
Temperature  
Mean Temperature 17 °F -  
Max Temperature 28 °F 27 °F - ()
Min Temperature 5 °F 8 °F - ()
Degree Days  
Heating Degree Days 48    
Moisture  
Dew Point 15 °F    
Average Humidity 81    
Maximum Humidity 100    
Minimum Humidity 44    
Precipitation  
Precipitation 0.00 in 0.03 in - ()
Sea Level Pressure  
Sea Level Pressure 29.87 in    
Wind  
Wind Speed 3 mph ()    
Max Wind Speed 12 mph    
Max Gust Speed -    
Visibility 5.5 miles    
Events Fog , Snow    
T = Trace of Precipitation, MM = Missing Value Source: Averaged Metar Reports

Daily Weather History Graph

Daily Weather History Graph

Search for Another Location

Airport:

Trip Planner

Search our weather history database for the weather conditions in past years. The results will help you decide how hot, cold, wet, or windy it might be!

Date:

Astronomy

Feb. 02, 2013 Rise Set
Actual Time 6:16 AM EET 4:26 PM EET
Civil Twilight 5:47 AM EET 4:55 PM EET
Nautical Twilight 5:15 AM EET 5:28 PM EET
Astronomical Twilight 4:43 AM EET 6:00 PM EET
Moon 11:17 PM EET (2/2) 9:10 AM EET (2/2)
Length of Visible Light 11h 08m
Length of Day
10h 10m
Waning Gibbous, 63% of the Moon is Illuminated
Feb 2
Waning Gibbous
Feb 3
Last Quarter
Feb 10
New
Feb 17
First Quarter
Feb 25
Full

Hourly Weather History & Observations

Time (EET) Temp. Windchill Dew Point Humidity Pressure Visibility Wind Dir Wind Speed Gust Speed Precip Events Conditions
12:50 AM 23.0 °F - 23.0 °F 100% 29.74 in 0.5 mi Calm Calm - N/A Fog , Snow Light Snow
1:50 AM 23.0 °F - 23.0 °F 100% 29.74 in 3.7 mi Calm Calm - N/A   Overcast
2:00 AM 23 °F - 23 °F 100%  in 4 mi Calm Calm - - Snow Light Snow
2:50 AM 23.0 °F - 23.0 °F 100% 29.74 in 1.1 mi WNW 1.2 mph - N/A Snow Light Snow
3:50 AM 24.8 °F 19.1 °F 24.8 °F 100% 29.74 in 2.2 mi SW 4.6 mph - N/A Snow Light Snow
4:50 AM 24.8 °F 14.0 °F 21.2 °F 86% 29.74 in 6.2 mi WSW 11.5 mph - N/A   Overcast
5:50 AM 23.0 °F 17.0 °F 21.2 °F 93% 29.74 in 6.2 mi NNW 4.6 mph - N/A   Overcast
6:50 AM 21.2 °F - 21.2 °F 100% 29.77 in 6.2 mi Variable 1.2 mph - N/A   Overcast
7:50 AM 21.2 °F 11.7 °F 21.2 °F 100% 29.80 in 6.2 mi SE 8.1 mph - N/A   Overcast
8:00 AM 22 °F - 22 °F 100%  in 6 mi SE 8.1 mph - -   Partly Cloudy
8:50 AM 24.8 °F 16.1 °F 19.4 °F 80% 29.80 in 6.2 mi ESE 8.1 mph - N/A   Overcast
9:50 AM 24.8 °F 16.1 °F 17.6 °F 74% 29.80 in 6.2 mi SE 8.1 mph - N/A   Overcast
10:50 AM 24.8 °F 17.9 °F 17.6 °F 74% 29.80 in 6.2 mi SE 5.8 mph - N/A   Overcast
11:50 AM 26.6 °F 21.2 °F 17.6 °F 69% 29.83 in 6.2 mi SSW 4.6 mph - N/A   Overcast
12:50 PM 26.6 °F 22.6 °F 15.8 °F 64% 29.83 in 6.2 mi WSW 3.5 mph - N/A   Overcast
1:50 PM 26.6 °F - 15.8 °F 64% 29.86 in 6.2 mi Variable 1.2 mph - N/A   Mostly Cloudy
2:00 PM 27 °F - 14 °F 44%  in 6 mi North 1.2 mph - -   Partly Cloudy
2:50 PM 26.6 °F - 15.8 °F 64% 29.89 in 6.2 mi Variable 2.3 mph - N/A   Mostly Cloudy
3:50 PM 24.8 °F 20.5 °F 15.8 °F 69% 29.92 in 6.2 mi Variable 3.5 mph - N/A   Mostly Cloudy
4:50 PM 23.0 °F 15.8 °F 14.0 °F 68% 29.95 in 6.2 mi NW 5.8 mph - N/A   Mostly Cloudy
5:50 PM 21.2 °F 13.6 °F 12.2 °F 68% 29.98 in 6.2 mi SSW 5.8 mph - N/A   Mostly Cloudy
6:50 PM 19.4 °F 14.3 °F 8.6 °F 63% 30.01 in 6.2 mi West 3.5 mph - N/A   Mostly Cloudy
7:50 PM 12.2 °F 4.3 °F 6.8 °F 79% 30.01 in 6.2 mi SSE 4.6 mph - N/A   Mostly Cloudy
8:00 PM 12 °F - 8 °F 79%  in 6 mi SSE 4.6 mph - -   Mostly Cloudy
8:50 PM 10.4 °F 0.8 °F 5.0 °F 79% 30.06 in 6.2 mi South 5.8 mph - N/A   Mostly Cloudy
9:50 PM 6.8 °F - 1.4 °F 79% 30.06 in 6.2 mi Variable 1.2 mph - N/A   Mostly Cloudy
10:50 PM 8.6 °F - 3.2 °F 79% 30.06 in 6.2 mi SSW 2.3 mph - N/A   Mostly Cloudy
11:50 PM 5.0 °F - 1.4 °F 85% 30.09 in 6.2 mi Calm Calm - N/A   Mostly Cloudy